SL-8 R/B

Satellite information

Favourite Embed

Satellite Type and Status

ROCKET BODYIN ORBIT

Key statistics

Satellite SL-8 R/B at a glance.

Uptime

15654

Days in orbit

Revolutions

≈ 13.7

Per day

Orbit

LEO

Low Earth Orbit

Inclination

82.9

Latest

Satellite identification and parameters

Extended collection of information and parameters for SL-8 R/B.

Object identification

Identified? True

Debris? False

Object name: SL-8 R/B

International designator: 1982-066B

Object number (NORAD): 13302

Object ID (CCSDS): 13302

Country: COMMONWEALTH OF INDEPENDENT STATES (CIS)

Current information (Y/N): Y

RCS size: LARGE

Orbital parameters

Period: 105.072 minutes

Inclination: 82.9289 deg

SMA: 7375.931 km

Apoapsis: 1026.742 km

Periapsis: 968.85 km

RAAN: 281.6831 deg

Eccentricy: 0.0039244

Argument of periapsis: 174.3977 deg

Mean anomaly: 294.9434 deg

Mean motion: 13.70495214 rev/day

Mean motion (dot): 0.00000039 rev/day2

B* drag term: 0.000027165 1/REarth

Two-line elements (TLE)

Creation date: May 8, 2025, 3:01 a.m.

Reference frame: TEME

Reference center: EARTH

Epoch: May 7, 2025, 8:23 p.m. UTC

TLE line 0: 0 SL-8 R/B

TLE line 1: 1 13302U 82066B 25127.84996056 .00000039 00000-0 27165-4 0 9992

TLE line 2: 2 13302 82.9289 281.6831 0039244 174.3977 294.9434 13.70495214142871

Live tracking on map

Real-time ground track for satellite SL-8 R/B.

In-orbit conjunctions

A list of the most updated potential collisions computed for object SL-8 R/B.

Target Orbit TCA Probability of collision Miss distance Type
COSMOS 1736 FUEL CORE LEO 2024-11-12 15:38:54 0.000173118 449.0 (m) PAYLOAD
THORAD AGENA D DEB SSO 2024-11-01 16:05:53 0.0002606174 250.0 (m) DEBRIS
FENGYUN 1C DEB SSO 2024-10-02 20:09:11 0.0002598276 216.0 (m) DEBRIS

Associated space launch

Civilian navigation satellite equivalent to the purely military Parus

SL-8 R/B was lifted into orbit during the mission ‘Kosmos-3M | Nadezhda 1’, on board a Kosmos-3M space rocket.

The launch took place on June 29, 1982, 9:45 p.m. from 132/1 (132L).

For more information about the launch, click the button.

Launch to space Kosmos-3M | Nadezhda 1
Kosmos-3M | Nadezhda 1

Agency: N/A

Status: Launch Successful

Launch date: June 29, 1982, 9:45 p.m. UTC

Rocket: Kosmos-3M

Launch pad: 132/1 (132L)

Location: Plesetsk Cosmodrome, Russian Federation

...

Latest news about this satellite

There are no fresh news available about this satellite. Check back as we update our databases every day.


Newsletter sign-up

Weekly statistics, charts and insights to help you stay on top of the space industry.